Weather History for KBOI - February, 2013

Change the Weather History Date:

Saturday, February 23, 2013

  Actual Average Record
Temperature  
Mean Temperature 35 °F 39 °F  
Max Temperature 42 °F 48 °F 64 °F (1995)
Min Temperature 28 °F 30 °F 7 °F (1894)
Degree Days  
Heating Degree Days 30 26  
Month to date heating degree days 671 671  
Since 1 July heating degree days 3948 4032  
Cooling Degree Days 0 0  
Month to date cooling degree days 0 0  
Year to date cooling degree days 0 0  
Moisture  
Dew Point 28 °F    
Average Humidity 76    
Maximum Humidity 100    
Minimum Humidity 51    
Precipitation  
Precipitation 0.22 in 0.04 in 0.79 in (2000)
Month to date precipitation 0.49 0.80  
Year to date precipitation 1.70 2.04  
Snow  
Snow 0.80 in 0.10 in 3.40 in (1917)
Month to date snowfall 2.6 2.5  
Since 1 July snowfall 14.4 17.3  
Snow Depth 1.00 in    
Sea Level Pressure  
Sea Level Pressure 29.97 in    
Wind  
Wind Speed 13 mph (NW)    
Max Wind Speed 29 mph    
Max Gust Speed 39 mph    
Visibility 8 miles    
Events Fog , Rain , Snow    
T = Trace of Precipitation, MM = Missing Value Source: NWS Daily Summary

Daily Weather History Graph

Daily Weather History Graph

Search for Another Location

Airport or City:

Trip Planner

Search our weather history database for the weather conditions in past years. The results will help you decide how hot, cold, wet, or windy it might be!

Date:

Astronomy

Feb. 23, 2013 Rise Set
Actual Time 7:30 AM MST 6:26 PM MST
Civil Twilight 7:01 AM MST 6:55 PM MST
Nautical Twilight 6:28 AM MST 7:28 PM MST
Astronomical Twilight 5:55 AM MST 8:01 PM MST
Moon 4:39 PM MST (2/23) 5:58 AM MST (2/23)
Length of Visible Light 11h 53m
Length of Day
10h 55m
Waxing Gibbous, 95% of the Moon is Illuminated
Feb 23
Waxing Gibbous
Feb 25
Full
Mar 4
Last Quarter
Mar 11
New
Mar 19
First Quarter

Hourly Weather History & Observations

Time (MST) Temp. Windchill Dew Point Humidity Pressure Visibility Wind Dir Wind Speed Gust Speed Precip Events Conditions
12:11 AM 37.4 °F 28.9 °F 33.8 °F 87% 29.82 in 10.0 mi ESE 13.8 mph - 0.00 in Rain Light Rain
12:53 AM 37.0 °F 27.0 °F 34.0 °F 89% 29.81 in 10.0 mi ESE 18.4 mph - 0.00 in   Overcast
1:50 AM 37.4 °F 28.9 °F 33.8 °F 87% 29.76 in 6.0 mi SE 13.8 mph - 0.02 in Rain Rain
1:53 AM 37.0 °F 28.9 °F 34.0 °F 89% 29.78 in 5.0 mi SE 12.7 mph - 0.03 in Rain Rain
2:26 AM 35.6 °F 23.0 °F 33.8 °F 93% 29.80 in 2.5 mi West 27.6 mph 39.1 mph 0.12 in Rain Rain
2:28 AM 33.8 °F 21.3 °F 32.0 °F 93% 29.80 in 1.0 mi West 24.2 mph 39.1 mph 0.13 in Snow Light Snow
2:31 AM 32.0 °F 19.8 °F 30.2 °F 93% 29.81 in 0.5 mi West 20.7 mph 39.1 mph 0.14 in Fog , Snow Snow
2:39 AM 32.0 °F 20.5 °F 30.2 °F 93% 29.81 in 0.2 mi WNW 18.4 mph 27.6 mph 0.15 in Fog , Snow Heavy Snow
2:53 AM 32.0 °F 20.5 °F 30.9 °F 96% 29.85 in 0.5 mi WNW 18.4 mph - 0.21 in Fog , Snow Snow
3:02 AM 32.0 °F 21.2 °F 30.2 °F 93% 29.82 in 0.5 mi WNW 16.1 mph - 0.02 in Fog , Snow Snow
3:20 AM 32.0 °F 23.6 °F 32.0 °F 100% 29.81 in 1.2 mi NW 10.4 mph - 0.03 in Snow Light Snow
3:53 AM 32.0 °F 22.1 °F 32.0 °F 100% 29.85 in 1.2 mi WNW 13.8 mph - 0.05 in Snow Light Snow
3:59 AM 32.0 °F 22.5 °F 30.2 °F 93% 29.81 in 2.0 mi WNW 12.7 mph - 0.00 in Snow Light Snow
4:05 AM 32.0 °F 22.1 °F 30.2 °F 93% 29.83 in 3.0 mi WNW 13.8 mph - 0.00 in Snow Light Snow
4:41 AM 32.0 °F 21.6 °F 30.2 °F 93% 29.85 in 10.0 mi WNW 15.0 mph - 0.00 in   Overcast
4:53 AM 32.0 °F 23.0 °F 30.9 °F 96% 29.87 in 10.0 mi NW 11.5 mph - 0.00 in   Overcast
5:53 AM 30.9 °F 21.2 °F 27.0 °F 85% 29.91 in 10.0 mi NW 12.7 mph - N/A   Scattered Clouds
6:53 AM 30.0 °F 20.0 °F 25.0 °F 82% 29.96 in 10.0 mi NW 12.7 mph - N/A   Clear
7:53 AM 28.9 °F 19.2 °F 25.0 °F 85% 29.99 in 10.0 mi NNW 11.5 mph - N/A   Mostly Cloudy
8:53 AM 28.9 °F 19.8 °F 25.0 °F 85% 30.02 in 10.0 mi West 10.4 mph - N/A   Clear
9:53 AM 32.0 °F 23.6 °F 26.1 °F 79% 30.04 in 10.0 mi North 10.4 mph - N/A   Mostly Cloudy
10:53 AM 34.0 °F 24.2 °F 26.1 °F 73% 30.05 in 10.0 mi WNW 15.0 mph - N/A   Overcast
11:53 AM 36.0 °F 25.3 °F 24.1 °F 62% 30.06 in 10.0 mi WNW 19.6 mph - N/A   Scattered Clouds
12:53 PM 36.0 °F 27.1 °F 24.1 °F 62% 30.05 in 10.0 mi NW 13.8 mph - N/A   Mostly Cloudy
1:53 PM 37.9 °F 27.9 °F 25.0 °F 60% 30.03 in 10.0 mi NW 19.6 mph - N/A   Mostly Cloudy
2:53 PM 39.9 °F 31.4 °F 25.0 °F 55% 30.04 in 10.0 mi NNW 16.1 mph 25.3 mph N/A   Mostly Cloudy
3:53 PM 41.0 °F 31.4 °F 25.0 °F 53% 30.05 in 10.0 mi NNW 21.9 mph 27.6 mph N/A   Mostly Cloudy
4:53 PM 39.9 °F 31.1 °F 24.1 °F 53% 30.07 in 10.0 mi NNW 17.3 mph 29.9 mph N/A   Scattered Clouds
5:53 PM 39.0 °F 31.0 °F 24.1 °F 55% 30.10 in 10.0 mi North 13.8 mph - N/A   Overcast
6:53 PM 36.0 °F 28.5 °F 24.1 °F 62% 30.14 in 10.0 mi North 10.4 mph - 0.00 in   Scattered Clouds
7:53 PM 35.1 °F 29.3 °F 24.1 °F 64% 30.17 in 10.0 mi NNW 6.9 mph - N/A   Partly Cloudy
8:53 PM 34.0 °F 26.6 °F 25.0 °F 70% 30.19 in 10.0 mi NW 9.2 mph - N/A   Mostly Cloudy
9:53 PM 34.0 °F 26.6 °F 24.1 °F 67% 30.21 in 10.0 mi WNW 9.2 mph - N/A   Scattered Clouds
10:53 PM 32.0 °F 25.6 °F 25.0 °F 75% 30.23 in 10.0 mi NW 6.9 mph - N/A   Mostly Cloudy
11:53 PM 30.9 °F 22.8 °F 25.0 °F 79% 30.23 in 10.0 mi NW 9.2 mph - N/A   Partly Cloudy